Regional Weather Roundup
Issued by NWS

Home | Current Version | Previous Version | Text Only | Print | Product List | Glossary Off
Versions: 1 2 3 4 5 6 7 8 9 10 11 12 13 14 15 16 17 18 19 20 21 22 23 24 25 26 27 28 29 30 31 32 33 34 35 36 37 38 39 40 41 42 43 44 45 46 47 48 49 50

000
ASUS45 KBOU 051707
RWRCO

WEATHER ROUNDUP FOR COLORADO
NATIONAL WEATHER SERVICE DENVER/BOULDER CO
1000 AM MST THU MAR 05 2015

NOTE: "FAIR" INDICATES FEW OR NO CLOUDS BELOW 12000 FEET WITH NO
SIGNIFICANT WEATHER AND/OR OBSTRUCTIONS TO VISIBILITY.

COZ001>005-013-030-031-051800-
...NORTHWEST COLORADO...

CITY           SKY/WX    TMP DP  RH WIND       PRES   REMARKS
CRAIG          SUNNY     20   8  60 CALM      30.39F
HAYDEN         SUNNY     18   3  53 SE5       30.38S WCI  11
MEEKER         SUNNY     22  10  60 CALM      30.39F
MOUNT WERNER   NOT AVBL
STEAMBOAT SPGS SUNNY     14   2  60 CALM      30.38S
WALDEN         MOSUNNY   19   5  53 S13       30.28R WCI   7
$$

COZ006>008-011-051800-
...WEST CENTRAL VALLEYS...

CITY           SKY/WX    TMP DP  RH WIND       PRES   REMARKS
GRAND JUNCTION SUNNY     32   8  36 SE12      30.45R WCI  23
MONTROSE       SUNNY     29  13  51 CALM      30.45F
EAGLE          SUNNY     16   5  62 CALM      30.46F
RIFLE          SUNNY     26   7  44 E5        30.46S WCI  20
DELTA          SUNNY     31  13  46 CALM      30.47S
NUCLA          SUNNY     30  12  47 CALM      30.46S
$$

COZ017>023-064>068-051800-
...SOUTHWEST COLORADO...

CITY           SKY/WX    TMP DP  RH WIND       PRES   REMARKS
DURANGO        SUNNY     25   5  42 CALM      30.39S
CORTEZ         SUNNY     32  11  41 CALM      30.40F
PAGOSA SPRINGS SUNNY     26  -2  28 CALM      30.36S
TELLURIDE      SUNNY     23   2  40 S3        30.37S
WOLF CREEK PAS SUNNY     14   7  73 SW8       30.32R WCI   3
$$

COZ009-010-012-014-032>034-037-058>063-051800-
...CENTRAL COLORADO...

CITY           SKY/WX    TMP DP  RH WIND       PRES   REMARKS
ASPEN          SUNNY     21   4  47 N6        30.35R WCI  13
BUENA VISTA    SUNNY     22   3  43 E5        30.28S WCI  16
COPPER MTN     NOT AVBL
BERTHOUD PASS  FAIR       1  -6  71 NW38G45   30.12R WCI -26
COTTONWOOD PAS SUNNY     27  -8  22 SE6       30.23S WCI  20
GUNNISON       SUNNY      3 -11  51 SE3       30.46F
KREMMLING      SUNNY     12   0  57 CALM      30.41F
LEADVILLE      SUNNY     20  -7  30 N7        30.26S WCI  11
SALIDA         SUNNY     31   1  26 SW10      30.35S WCI  23
SUNLIGHT       SUNNY     18  12  79 SW3         N/A
WILKERSON PASS PTSUNNY   18  -4  38 W9        30.20S WCI   6
$$

COZ069>075-051800-
...SAN LUIS VALLEY/SANGRE DE CRISTO MOUNTAINS...

CITY           SKY/WX    TMP DP  RH WIND       PRES   REMARKS
ALAMOSA        SUNNY     23   4  44 SW3       30.37S
LA VETA PASS   SUNNY     21   0  39 S15G25    30.22R WCI   8
SAGUACHE       SUNNY     27   7  43 SE8       30.35F WCI  18
$$

COZ035-036-038>040-051800-
...NORTHERN COLORADO FRONT RANGE...

CITY           SKY/WX    TMP DP  RH WIND       PRES   REMARKS
DENVER INTL AP PTSUNNY   30   9  41 W7        30.19R WCI  23
DMNS CITY PARK   N/A     39   5  24 SW5       30.19S
AURORA         PTSUNNY   33   9  36 S8        30.19R WCI  26
FRONT RANGE AP NOT AVBL
ERIE MUNI ARPT PTSUNNY   19   9  64 CALM      30.21S
BOULDER MUN AP PTSUNNY   21   9  58 N3        30.20S
CENTENNIAL     PTSUNNY   35   9  33 S6        30.18R WCI  30
BROOMFIELD     PTSUNNY   28   9  43 MISG      30.18S
FORT COLLINS   PTSUNNY   18  12  79 N3        30.24S
LONGMONT       PTSUNNY   25   9  50 N3        30.23S
$$

COZ041-046-047-076>085-087-088-051800-
...PIKES PEAK/PALMER DIVIDE AND SOUTHERN FOOTHILLS...

CITY           SKY/WX    TMP DP  RH WIND       PRES   REMARKS
COLO. SPRINGS  PTSUNNY   29   4  34 E5        30.22S WCI  24
A. F. ACADEMY  MOSUNNY   29   1  30 CALM      30.20S
ELLICOTT       NOT AVBL
FALCON         SUNNY     32  -2  23 SE3       30.22S
FORT CARSON    NOT AVBL
LIMON          SUNNY     19   7  59 N3        30.24S
MONUMENT HILL  MOSUNNY   30   5  34 S9        30.17S WCI  22
TRINIDAD       SUNNY     23  13  65 NW5       30.27F WCI  17
$$

COZ042>045-048>051-090-091-051800-
...NORTHEAST COLORADO...

CITY           SKY/WX    TMP DP  RH WIND       PRES   REMARKS
GREELEY ARPT   PTSUNNY   18   9  68 CALM      30.24R
AKRON          SUNNY     33  11  39 W9        30.23S WCI  25
BURLINGTON     SUNNY     33  17  51 SW15      30.29S WCI  23
WRAY           SUNNY     40   7  25 W9        30.28S
STERLING       SUNNY     30  19  64 SW9       30.25F WCI  22
HOLYOKE        NOT AVBL
FORT MORGAN    SUNNY     27  13  56 SW5       30.25S WCI  21
$$

COZ086-089-092>099-051800-
...SOUTHEAST COLORADO...

CITY           SKY/WX    TMP DP  RH WIND       PRES   REMARKS
PUEBLO         SUNNY     21  13  71 CALM      30.29F
LA JUNTA       SUNNY     27  18  69 SW10      30.32F WCI  17
LAMAR          SUNNY     29  15  56 W12       30.34F WCI  19
SPRINGFIELD      N/A     33  21  61 SW12      30.33S WCI  24
$$


USA.gov is the U.S. government's official web portal to all federal, state and local government web resources and services.